Time,TemperatureF,DewpointF,PressureIn,WindDirection,WindDirectionDegrees,WindSpeedMPH,WindSpeedGustMPH,Humidity,HourlyPrecipIn,Conditions,Clouds,dailyrainin,SolarRadiationWatts/m^2,SoftwareType,DateUTC
2013-09-06 00:00:00,53.1,42.8,30.10,North,350,0.0,2.0,68,0.00,,CLR,0.00,0.00,VWS V14.01,2013-09-06 04:00:00,
2013-09-06 00:01:00,53.1,42.8,30.10,North,350,0.0,2.0,68,0.00,,CLR,0.00,0.00,VWS V14.01,2013-09-06 04:01:00,
2013-09-06 00:02:00,53.1,42.8,30.10,North,351,0.0,2.0,68,0.00,,CLR,0.00,0.00,VWS V14.01,2013-09-06 04:02:00,
2013-09-06 00:05:00,50.8,43.5,30.07,North,355,0.0,0.0,76,0.00,,CLR,0.00,0.00,VWS V14.01,2013-09-06 04:05:00,
2013-09-06 00:07:00,53.1,42.8,30.10,North,350,0.0,1.0,68,0.00,,CLR,0.00,0.00,VWS V14.01,2013-09-06 04:07:00,
2013-09-06 00:10:00,50.9,43.6,30.07,North,355,0.0,1.0,76,0.00,,CLR,0.00,0.00,VWS V14.01,2013-09-06 04:10:00,
2013-09-06 00:13:00,52.9,43.0,30.10,North,350,0.0,0.0,69,0.00,,CLR,0.00,0.00,VWS V14.01,2013-09-06 04:13:00,
2013-09-06 00:15:00,51.0,43.4,30.08,North,355,0.0,0.0,75,0.00,,CLR,0.00,0.00,VWS V14.01,2013-09-06 04:15:00,
2013-09-06 00:18:00,52.5,42.6,30.09,North,350,0.0,1.0,69,0.00,,CLR,0.00,0.00,VWS V14.01,2013-09-06 04:18:00,
2013-09-06 00:20:00,51.3,43.0,30.08,North,355,0.0,1.0,73,0.00,,CLR,0.00,0.00,VWS V14.01,2013-09-06 04:20:00,
2013-09-06 00:23:00,52.1,42.6,30.10,North,351,0.0,1.0,70,0.00,,CLR,0.00,0.00,VWS V14.01,2013-09-06 04:23:00,
2013-09-06 00:25:00,51.6,43.2,30.08,North,355,0.0,0.0,73,0.00,,CLR,0.00,0.00,VWS V14.01,2013-09-06 04:25:00,
2013-09-06 00:28:00,52.1,42.6,30.10,North,351,0.0,1.0,70,0.00,,CLR,0.00,0.00,VWS V14.01,2013-09-06 04:28:00,
2013-09-06 00:30:00,51.6,43.2,30.08,North,355,1.0,2.0,73,0.00,,CLR,0.00,0.00,VWS V14.01,2013-09-06 04:30:00,
2013-09-06 00:33:00,51.9,42.8,30.10,North,350,0.0,1.0,71,0.00,,CLR,0.00,0.00,VWS V14.01,2013-09-06 04:33:00,
2013-09-06 00:35:00,51.6,42.9,30.08,North,355,0.0,2.0,72,0.00,,CLR,0.00,0.00,VWS V14.01,2013-09-06 04:35:00,
2013-09-06 00:38:00,51.7,42.6,30.09,North,350,0.0,1.0,71,0.00,,CLR,0.00,0.00,VWS V14.01,2013-09-06 04:38:00,
2013-09-06 00:40:00,51.7,42.6,30.08,North,355,0.0,1.0,71,0.00,,CLR,0.00,0.00,VWS V14.01,2013-09-06 04:40:00,
2013-09-06 00:43:00,51.6,42.5,30.09,North,350,1.0,3.0,71,0.00,,CLR,0.00,0.00,VWS V14.01,2013-09-06 04:43:00,
2013-09-06 00:45:00,51.9,42.8,30.08,North,355,0.0,3.0,71,0.00,,CLR,0.00,0.00,VWS V14.01,2013-09-06 04:45:00,
2013-09-06 00:49:00,51.7,42.6,30.11,North,350,0.0,3.0,71,0.00,,CLR,0.00,0.00,VWS V14.01,2013-09-06 04:49:00,
2013-09-06 00:50:00,52.4,42.5,30.08,North,9,0.0,6.0,69,0.00,,CLR,0.00,0.00,VWS V14.01,2013-09-06 04:50:00,
2013-09-06 00:54:00,51.7,43.0,30.11,North,350,0.0,3.0,72,0.00,,CLR,0.00,0.00,VWS V14.01,2013-09-06 04:54:00,
2013-09-06 00:55:00,52.8,42.9,30.08,North,9,1.0,2.0,69,0.00,,CLR,0.00,0.00,VWS V14.01,2013-09-06 04:55:00,
2013-09-06 00:59:00,51.6,42.9,30.10,North,350,0.0,0.0,72,0.00,,CLR,0.00,0.00,VWS V14.01,2013-09-06 04:59:00,
2013-09-06 01:00:00,53.0,42.7,30.09,North,350,1.0,6.0,68,0.00,,CLR,0.00,0.00,VWS V14.01,2013-09-06 05:00:00,
2013-09-06 01:04:00,51.3,43.0,30.11,North,350,0.0,0.0,73,0.00,,CLR,0.00,0.00,VWS V14.01,2013-09-06 05:04:00,
2013-09-06 01:05:00,53.1,42.8,30.10,North,351,0.0,2.0,68,0.00,,CLR,0.00,0.00,VWS V14.01,2013-09-06 05:05:00,
2013-09-06 01:09:00,50.9,42.6,30.10,North,350,0.0,0.0,73,0.00,,CLR,0.00,0.00,VWS V14.01,2013-09-06 05:09:00,
2013-09-06 01:10:00,53.1,42.8,30.10,North,350,0.0,2.0,68,0.00,,CLR,0.00,0.00,VWS V14.01,2013-09-06 05:10:00,
2013-09-06 01:14:00,50.5,42.5,30.11,North,350,1.0,2.0,74,0.00,,CLR,0.00,0.00,VWS V14.01,2013-09-06 05:14:00,
2013-09-06 01:15:00,52.9,42.6,30.10,North,351,0.0,1.0,68,0.00,,CLR,0.00,0.00,VWS V14.01,2013-09-06 05:15:00,
2013-09-06 01:19:00,50.4,42.4,30.10,North,350,1.0,2.0,74,0.00,,CLR,0.00,0.00,VWS V14.01,2013-09-06 05:19:00,
2013-09-06 01:20:00,52.6,42.7,30.10,North,350,0.0,0.0,69,0.00,,CLR,0.00,0.00,VWS V14.01,2013-09-06 05:20:00,
2013-09-06 01:24:00,50.3,42.3,30.11,North,350,0.0,0.0,74,0.00,,CLR,0.00,0.00,VWS V14.01,2013-09-06 05:24:00,
2013-09-06 01:25:00,52.2,42.7,30.09,North,351,0.0,2.0,70,0.00,,CLR,0.00,0.00,VWS V14.01,2013-09-06 05:25:00,
2013-09-06 01:30:00,50.2,42.6,30.11,North,350,0.0,0.0,75,0.00,,CLR,0.00,0.00,VWS V14.01,2013-09-06 05:30:00,
2013-09-06 01:35:00,49.8,42.5,30.10,North,350,0.0,0.0,76,0.00,,CLR,0.00,0.00,VWS V14.01,2013-09-06 05:35:00,
2013-09-06 01:40:00,49.4,42.5,30.10,North,350,0.0,1.0,77,0.00,,CLR,0.00,0.00,VWS V14.01,2013-09-06 05:40:00,
2013-09-06 01:45:00,49.2,43.0,30.11,North,350,1.0,2.0,79,0.00,,CLR,0.00,0.00,VWS V14.01,2013-09-06 05:45:00,
2013-09-06 01:50:00,49.0,42.8,30.10,North,350,0.0,1.0,79,0.00,,CLR,0.00,0.00,VWS V14.01,2013-09-06 05:50:00,
2013-09-06 01:55:00,48.7,42.5,30.11,North,350,0.0,0.0,79,0.00,,CLR,0.00,0.00,VWS V14.01,2013-09-06 05:55:00,
2013-09-06 02:00:00,48.4,42.5,30.10,North,351,0.0,0.0,80,0.00,,CLR,0.00,0.00,VWS V14.01,2013-09-06 06:00:00,
2013-09-06 02:05:00,48.1,42.5,30.11,North,350,0.0,0.0,81,0.00,,CLR,0.00,0.00,VWS V14.01,2013-09-06 06:05:00,
2013-09-06 02:10:00,47.8,42.6,30.11,North,350,0.0,0.0,82,0.00,,CLR,0.00,0.00,VWS V14.01,2013-09-06 06:10:00,
2013-09-06 02:15:00,50.7,42.7,30.10,North,350,0.0,0.0,74,0.00,,CLR,0.00,0.00,VWS V14.01,2013-09-06 06:15:00,
2013-09-06 02:16:00,47.6,42.4,30.11,North,350,0.0,0.0,82,0.00,,CLR,0.00,0.00,VWS V14.01,2013-09-06 06:16:00,
2013-09-06 02:20:00,50.4,42.4,30.11,North,350,1.0,2.0,74,0.00,,CLR,0.00,0.00,VWS V14.01,2013-09-06 06:20:00,
2013-09-06 02:21:00,47.3,42.1,30.12,North,350,0.0,0.0,82,0.00,,CLR,0.00,0.00,VWS V14.01,2013-09-06 06:21:00,
2013-09-06 02:25:00,50.4,42.4,30.10,North,350,0.0,2.0,74,0.00,,CLR,0.00,0.00,VWS V14.01,2013-09-06 06:25:00,
2013-09-06 02:26:00,47.1,42.2,30.11,North,350,0.0,0.0,83,0.00,,CLR,0.00,0.00,VWS V14.01,2013-09-06 06:26:00,
2013-09-06 02:30:00,50.3,42.7,30.11,North,350,0.0,0.0,75,0.00,,CLR,0.00,0.00,VWS V14.01,2013-09-06 06:30:00,
2013-09-06 02:31:00,46.8,42.2,30.12,North,351,0.0,0.0,84,0.00,,CLR,0.00,0.00,VWS V14.01,2013-09-06 06:31:00,
2013-09-06 02:35:00,50.0,42.4,30.11,North,350,0.0,0.0,75,0.00,,CLR,0.00,0.00,VWS V14.01,2013-09-06 06:35:00,
2013-09-06 02:36:00,46.5,41.9,30.11,North,350,0.0,0.0,84,0.00,,CLR,0.00,0.00,VWS V14.01,2013-09-06 06:36:00,
2013-09-06 02:40:00,49.6,42.4,30.10,North,351,0.0,0.0,76,0.00,,CLR,0.00,0.00,VWS V14.01,2013-09-06 06:40:00,
2013-09-06 02:41:00,46.3,41.7,30.12,North,350,0.0,0.0,84,0.00,,CLR,0.00,0.00,VWS V14.01,2013-09-06 06:41:00,
2013-09-06 02:45:00,49.3,42.7,30.11,North,350,0.0,2.0,78,0.00,,CLR,0.00,0.00,VWS V14.01,2013-09-06 06:45:00,
2013-09-06 02:46:00,46.1,41.8,30.11,North,351,0.0,1.0,85,0.00,,CLR,0.00,0.00,VWS V14.01,2013-09-06 06:46:00,
2013-09-06 02:50:00,49.1,42.9,30.11,North,350,0.0,2.0,79,0.00,,CLR,0.00,0.00,VWS V14.01,2013-09-06 06:50:00,
2013-09-06 02:51:00,45.9,41.7,30.12,North,350,0.0,1.0,85,0.00,,CLR,0.00,0.00,VWS V14.01,2013-09-06 06:51:00,
2013-09-06 02:55:00,48.9,42.7,30.10,North,350,0.0,1.0,79,0.00,,CLR,0.00,0.00,VWS V14.01,2013-09-06 06:55:00,
2013-09-06 02:56:00,45.8,41.5,30.11,North,350,0.0,0.0,85,0.00,,CLR,0.00,0.00,VWS V14.01,2013-09-06 06:56:00,
2013-09-06 03:00:00,48.6,42.7,30.11,North,350,0.0,0.0,80,0.00,,CLR,0.00,0.00,VWS V14.01,2013-09-06 07:00:00,
2013-09-06 03:01:00,45.6,41.7,30.12,North,351,0.0,0.0,86,0.00,,CLR,0.00,0.00,VWS V14.01,2013-09-06 07:01:00,
2013-09-06 03:05:00,48.3,42.4,30.10,North,350,0.0,0.0,80,0.00,,CLR,0.00,0.00,VWS V14.01,2013-09-06 07:05:00,
2013-09-06 03:06:00,45.4,41.5,30.13,North,350,0.0,0.0,86,0.00,,CLR,0.00,0.00,VWS V14.01,2013-09-06 07:06:00,
2013-09-06 03:10:00,48.0,42.5,30.11,North,350,0.0,0.0,81,0.00,,CLR,0.00,0.00,VWS V14.01,2013-09-06 07:10:00,
2013-09-06 03:12:00,45.3,41.7,30.11,North,350,0.0,0.0,87,0.00,,CLR,0.00,0.00,VWS V14.01,2013-09-06 07:12:00,
2013-09-06 03:15:00,47.8,42.6,30.10,North,350,0.0,0.0,82,0.00,,CLR,0.00,0.00,VWS V14.01,2013-09-06 07:15:00,
2013-09-06 03:17:00,45.1,41.5,30.13,North,350,0.0,0.0,87,0.00,,CLR,0.00,0.00,VWS V14.01,2013-09-06 07:17:00,
2013-09-06 03:20:00,47.5,42.3,30.12,North,350,0.0,0.0,82,0.00,,CLR,0.00,0.00,VWS V14.01,2013-09-06 07:20:00,
2013-09-06 03:22:00,45.0,41.4,30.11,North,350,0.0,0.0,87,0.00,,CLR,0.00,0.00,VWS V14.01,2013-09-06 07:22:00,
2013-09-06 03:25:00,47.3,42.1,30.11,North,350,0.0,0.0,82,0.00,,CLR,0.00,0.00,VWS V14.01,2013-09-06 07:25:00,
2013-09-06 03:27:00,44.9,41.3,30.13,North,350,0.0,0.0,87,0.00,,CLR,0.00,0.00,VWS V14.01,2013-09-06 07:27:00,
2013-09-06 03:30:00,47.0,42.1,30.10,North,350,0.0,0.0,83,0.00,,CLR,0.00,0.00,VWS V14.01,2013-09-06 07:30:00,
2013-09-06 03:32:00,44.7,41.4,30.12,North,350,0.0,0.0,88,0.00,,CLR,0.00,0.00,VWS V14.01,2013-09-06 07:32:00,
2013-09-06 03:35:00,46.8,43.4,30.12,North,350,0.0,0.0,88,0.00,,CLR,0.00,0.00,VWS V14.01,2013-09-06 07:35:00,
2013-09-06 03:37:00,44.5,41.2,30.13,North,350,0.0,0.0,88,0.00,,CLR,0.00,0.00,VWS V14.01,2013-09-06 07:37:00,
2013-09-06 03:40:00,46.5,41.9,30.11,North,350,0.0,0.0,84,0.00,,CLR,0.00,0.00,VWS V14.01,2013-09-06 07:40:00,
2013-09-06 03:42:00,44.4,41.1,30.12,North,350,0.0,1.0,88,0.00,,CLR,0.00,0.00,VWS V14.01,2013-09-06 07:42:00,
2013-09-06 03:45:00,46.3,42.0,30.12,North,351,0.0,0.0,85,0.00,,CLR,0.00,0.00,VWS V14.01,2013-09-06 07:45:00,
2013-09-06 03:47:00,44.4,41.4,30.13,North,350,1.0,2.0,89,0.00,,CLR,0.00,0.00,VWS V14.01,2013-09-06 07:47:00,
2013-09-06 03:50:00,46.0,41.8,30.11,North,350,0.0,1.0,85,0.00,,CLR,0.00,0.00,VWS V14.01,2013-09-06 07:50:00,
2013-09-06 03:52:00,44.5,41.5,30.13,North,350,1.0,3.0,89,0.00,,CLR,0.00,0.00,VWS V14.01,2013-09-06 07:52:00,
2013-09-06 03:55:00,45.9,41.7,30.12,North,350,0.0,1.0,85,0.00,,CLR,0.00,0.00,VWS V14.01,2013-09-06 07:55:00,
2013-09-06 03:57:00,44.5,41.5,30.12,North,350,0.0,1.0,89,0.00,,CLR,0.00,0.00,VWS V14.01,2013-09-06 07:57:00,
2013-09-06 04:00:00,45.7,41.5,30.11,North,350,0.0,0.0,85,0.00,,CLR,0.00,0.00,VWS V14.01,2013-09-06 08:00:00,
2013-09-06 04:02:00,44.4,41.4,30.13,North,350,0.0,1.0,89,0.00,,CLR,0.00,0.00,VWS V14.01,2013-09-06 08:02:00,
2013-09-06 04:05:00,45.6,41.7,30.12,North,351,0.0,0.0,86,0.00,,CLR,0.00,0.00,VWS V14.01,2013-09-06 08:05:00,
2013-09-06 04:07:00,44.3,41.3,30.12,North,350,1.0,2.0,89,0.00,,CLR,0.00,0.00,VWS V14.01,2013-09-06 08:07:00,
2013-09-06 04:10:00,45.4,41.5,30.13,North,350,0.0,0.0,86,0.00,,CLR,0.00,0.00,VWS V14.01,2013-09-06 08:10:00,
2013-09-06 04:12:00,44.2,41.2,30.14,North,350,0.0,2.0,89,0.00,,CLR,0.00,0.00,VWS V14.01,2013-09-06 08:12:00,
2013-09-06 04:15:00,45.3,41.7,30.11,North,350,0.0,0.0,87,0.00,,CLR,0.00,0.00,VWS V14.01,2013-09-06 08:15:00,
2013-09-06 04:17:00,44.1,41.1,30.12,North,350,0.0,1.0,89,0.00,,CLR,0.00,0.00,VWS V14.01,2013-09-06 08:17:00,
2013-09-06 04:20:00,45.1,41.5,30.13,North,350,0.0,0.0,87,0.00,,CLR,0.00,0.00,VWS V14.01,2013-09-06 08:20:00,
2013-09-06 04:22:00,44.0,41.0,30.14,North,350,0.0,1.0,89,0.00,,CLR,0.00,0.00,VWS V14.01,2013-09-06 08:22:00,
2013-09-06 04:25:00,45.0,41.4,30.11,North,350,0.0,0.0,87,0.00,,CLR,0.00,0.00,VWS V14.01,2013-09-06 08:25:00,
2013-09-06 04:27:00,43.9,40.9,30.14,North,350,1.0,2.0,89,0.00,,CLR,0.00,0.00,VWS V14.01,2013-09-06 08:27:00,
2013-09-06 04:30:00,44.9,41.3,30.13,North,350,0.0,0.0,87,0.00,,CLR,0.00,0.00,VWS V14.01,2013-09-06 08:30:00,
2013-09-06 04:32:00,43.7,40.7,30.13,North,350,0.0,1.0,89,0.00,,CLR,0.00,0.00,VWS V14.01,2013-09-06 08:32:00,
2013-09-06 04:35:00,44.7,41.4,30.12,North,350,0.0,0.0,88,0.00,,CLR,0.00,0.00,VWS V14.01,2013-09-06 08:35:00,
2013-09-06 04:37:00,43.6,40.6,30.13,North,350,0.0,0.0,89,0.00,,CLR,0.00,0.00,VWS V14.01,2013-09-06 08:37:00,
2013-09-06 04:40:00,44.5,41.2,30.13,North,350,0.0,0.0,88,0.00,,CLR,0.00,0.00,VWS V14.01,2013-09-06 08:40:00,
2013-09-06 04:42:00,43.4,40.4,30.14,North,351,0.0,0.0,89,0.00,,CLR,0.00,0.00,VWS V14.01,2013-09-06 08:42:00,
2013-09-06 04:45:00,44.4,41.1,30.12,North,350,0.0,1.0,88,0.00,,CLR,0.00,0.00,VWS V14.01,2013-09-06 08:45:00,
2013-09-06 04:47:00,43.2,40.2,30.15,North,351,0.0,0.0,89,0.00,,CLR,0.00,0.00,VWS V14.01,2013-09-06 08:47:00,
2013-09-06 04:50:00,44.4,41.4,30.13,North,350,1.0,2.0,89,0.00,,CLR,0.00,0.00,VWS V14.01,2013-09-06 08:50:00,
2013-09-06 04:52:00,43.1,40.1,30.14,North,350,0.0,0.0,89,0.00,,CLR,0.00,0.00,VWS V14.01,2013-09-06 08:52:00,
2013-09-06 04:55:00,44.5,41.5,30.13,North,350,1.0,3.0,89,0.00,,CLR,0.00,0.00,VWS V14.01,2013-09-06 08:55:00,
2013-09-06 04:57:00,43.1,40.4,30.15,North,350,0.0,0.0,90,0.00,,CLR,0.00,0.00,VWS V14.01,2013-09-06 08:57:00,
2013-09-06 05:00:00,44.5,41.5,30.12,North,350,0.0,1.0,89,0.00,,CLR,0.00,0.00,VWS V14.01,2013-09-06 09:00:00,
2013-09-06 05:02:00,43.0,40.3,30.14,North,350,0.0,0.0,90,0.00,,CLR,0.00,0.00,VWS V14.01,2013-09-06 09:02:00,
2013-09-06 05:05:00,44.4,41.4,30.13,North,350,0.0,1.0,89,0.00,,CLR,0.00,0.00,VWS V14.01,2013-09-06 09:05:00,
2013-09-06 05:07:00,42.9,40.2,30.15,North,351,0.0,0.0,90,0.00,,CLR,0.00,0.00,VWS V14.01,2013-09-06 09:07:00,
2013-09-06 05:10:00,44.3,41.3,30.12,North,350,1.0,2.0,89,0.00,,CLR,0.00,0.00,VWS V14.01,2013-09-06 09:10:00,
2013-09-06 05:12:00,42.8,40.1,30.14,North,350,0.0,0.0,90,0.00,,CLR,0.00,0.00,VWS V14.01,2013-09-06 09:12:00,
2013-09-06 05:15:00,44.2,41.2,30.14,North,350,0.0,2.0,89,0.00,,CLR,0.00,0.00,VWS V14.01,2013-09-06 09:15:00,
2013-09-06 05:17:00,42.6,39.9,30.15,North,350,0.0,0.0,90,0.00,,CLR,0.00,0.00,VWS V14.01,2013-09-06 09:17:00,
2013-09-06 05:20:00,44.1,41.1,30.12,North,350,0.0,1.0,89,0.00,,CLR,0.00,0.00,VWS V14.01,2013-09-06 09:20:00,
2013-09-06 05:22:00,42.6,40.2,30.14,North,351,0.0,0.0,91,0.00,,CLR,0.00,0.00,VWS V14.01,2013-09-06 09:22:00,
2013-09-06 05:25:00,44.0,41.0,30.14,North,350,0.0,1.0,89,0.00,,CLR,0.00,0.00,VWS V14.01,2013-09-06 09:25:00,
2013-09-06 05:28:00,42.6,40.2,30.16,North,350,0.0,0.0,91,0.00,,CLR,0.00,0.00,VWS V14.01,2013-09-06 09:28:00,
2013-09-06 05:30:00,43.9,40.9,30.14,North,350,1.0,2.0,89,0.00,,CLR,0.00,0.00,VWS V14.01,2013-09-06 09:30:00,
2013-09-06 05:33:00,42.4,40.0,30.14,North,350,0.0,0.0,91,0.00,,CLR,0.00,0.00,VWS V14.01,2013-09-06 09:33:00,
2013-09-06 05:35:00,43.7,40.7,30.13,North,350,0.0,1.0,89,0.00,,CLR,0.00,0.00,VWS V14.01,2013-09-06 09:35:00,
2013-09-06 05:38:00,42.5,40.1,30.15,North,350,0.0,0.0,91,0.00,,CLR,0.00,0.00,VWS V14.01,2013-09-06 09:38:00,
2013-09-06 05:40:00,43.6,40.6,30.14,North,350,0.0,0.0,89,0.00,,CLR,0.00,0.00,VWS V14.01,2013-09-06 09:40:00,
2013-09-06 05:43:00,42.5,40.1,30.15,North,351,0.0,0.0,91,0.00,,CLR,0.00,0.00,VWS V14.01,2013-09-06 09:43:00,
2013-09-06 05:45:00,43.4,40.4,30.14,North,350,0.0,0.0,89,0.00,,CLR,0.00,0.00,VWS V14.01,2013-09-06 09:45:00,
2013-09-06 05:48:00,42.4,40.0,30.14,North,350,0.0,0.0,91,0.00,,CLR,0.00,0.00,VWS V14.01,2013-09-06 09:48:00,
2013-09-06 05:50:00,43.2,40.2,30.15,North,350,0.0,0.0,89,0.00,,CLR,0.00,0.00,VWS V14.01,2013-09-06 09:50:00,
2013-09-06 05:53:00,42.3,39.9,30.15,North,350,0.0,0.0,91,0.00,,CLR,0.00,0.00,VWS V14.01,2013-09-06 09:53:00,
2013-09-06 05:55:00,43.1,40.1,30.14,North,350,0.0,0.0,89,0.00,,CLR,0.00,0.00,VWS V14.01,2013-09-06 09:55:00,
2013-09-06 05:58:00,42.1,39.7,30.14,North,350,0.0,0.0,91,0.00,,CLR,0.00,0.00,VWS V14.01,2013-09-06 09:58:00,
2013-09-06 06:00:00,43.0,40.3,30.15,North,350,0.0,0.0,90,0.00,,CLR,0.00,0.00,VWS V14.01,2013-09-06 10:00:00,
2013-09-06 06:03:00,41.9,39.5,30.16,North,351,0.0,1.0,91,0.00,,CLR,0.00,0.00,VWS V14.01,2013-09-06 10:03:00,
2013-09-06 06:05:00,43.0,40.3,30.14,North,350,0.0,0.0,90,0.00,,CLR,0.00,0.00,VWS V14.01,2013-09-06 10:05:00,
2013-09-06 06:08:00,42.0,39.8,30.14,North,350,0.0,0.0,92,0.00,,CLR,0.00,0.00,VWS V14.01,2013-09-06 10:08:00,
2013-09-06 06:10:00,42.9,40.2,30.15,North,350,0.0,0.0,90,0.00,,CLR,0.00,0.00,VWS V14.01,2013-09-06 10:10:00,
2013-09-06 06:13:00,42.0,39.6,30.16,North,350,0.0,0.0,91,0.00,,CLR,0.00,0.00,VWS V14.01,2013-09-06 10:13:00,
2013-09-06 06:15:00,42.8,40.1,30.14,North,350,0.0,0.0,90,0.00,,CLR,0.00,0.00,VWS V14.01,2013-09-06 10:15:00,
2013-09-06 06:18:00,41.9,39.5,30.15,North,350,0.0,0.0,91,0.00,,CLR,0.00,5.00,VWS V14.01,2013-09-06 10:18:00,
2013-09-06 06:20:00,42.6,39.9,30.15,North,350,0.0,0.0,90,0.00,,CLR,0.00,0.00,VWS V14.01,2013-09-06 10:20:00,
2013-09-06 06:23:00,41.8,39.7,30.17,North,350,0.0,0.0,92,0.00,,CLR,0.00,7.00,VWS V14.01,2013-09-06 10:23:00,
2013-09-06 06:25:00,42.6,40.2,30.14,North,350,0.0,1.0,91,0.00,,CLR,0.00,0.00,VWS V14.01,2013-09-06 10:25:00,
2013-09-06 06:28:00,41.9,39.8,30.16,North,350,0.0,1.0,92,0.00,,CLR,0.00,9.00,VWS V14.01,2013-09-06 10:28:00,
2013-09-06 06:30:00,42.6,40.2,30.15,North,350,0.0,0.0,91,0.00,,CLR,0.00,0.00,VWS V14.01,2013-09-06 10:30:00,
2013-09-06 06:33:00,42.1,40.0,30.17,North,350,1.0,2.0,92,0.00,,CLR,0.00,11.00,VWS V14.01,2013-09-06 10:33:00,
2013-09-06 06:35:00,42.5,40.1,30.16,North,350,0.0,0.0,91,0.00,,CLR,0.00,0.00,VWS V14.01,2013-09-06 10:35:00,
2013-09-06 06:38:00,42.4,40.2,30.17,North,350,0.0,3.0,92,0.00,,CLR,0.00,30.00,VWS V14.01,2013-09-06 10:38:00,
2013-09-06 06:40:00,42.5,40.1,30.14,North,350,0.0,0.0,91,0.00,,CLR,0.00,0.00,VWS V14.01,2013-09-06 10:40:00,
2013-09-06 06:43:00,42.8,40.6,30.16,North,350,1.0,2.0,92,0.00,,CLR,0.00,42.00,VWS V14.01,2013-09-06 10:43:00,
2013-09-06 06:45:00,42.5,40.1,30.15,North,350,0.0,0.0,91,0.00,,CLR,0.00,0.00,VWS V14.01,2013-09-06 10:45:00,
2013-09-06 06:48:00,43.1,40.7,30.18,North,350,1.0,3.0,91,0.00,,CLR,0.00,56.00,VWS V14.01,2013-09-06 10:48:00,
2013-09-06 06:50:00,42.5,40.1,30.14,North,350,0.0,0.0,91,0.00,,CLR,0.00,0.00,VWS V14.01,2013-09-06 10:50:00,
2013-09-06 06:53:00,43.4,40.7,30.17,North,350,1.0,2.0,90,0.00,,CLR,0.00,70.00,VWS V14.01,2013-09-06 10:53:00,
2013-09-06 06:55:00,42.3,39.9,30.16,North,350,0.0,0.0,91,0.00,,CLR,0.00,0.00,VWS V14.01,2013-09-06 10:55:00,
2013-09-06 06:58:00,43.7,41.0,30.18,North,351,1.0,2.0,90,0.00,,CLR,0.00,86.00,VWS V14.01,2013-09-06 10:58:00,
2013-09-06 07:00:00,42.1,39.7,30.14,North,350,0.0,0.0,91,0.00,,CLR,0.00,0.00,VWS V14.01,2013-09-06 11:00:00,
2013-09-06 07:04:00,44.0,41.0,30.17,West,273,2.0,5.0,89,0.00,,CLR,0.00,102.00,VWS V14.01,2013-09-06 11:04:00,
2013-09-06 07:05:00,41.9,39.5,30.15,North,350,0.0,0.0,91,0.00,,CLR,0.00,0.00,VWS V14.01,2013-09-06 11:05:00,
2013-09-06 07:09:00,44.3,41.3,30.18,West,273,0.0,0.0,89,0.00,,CLR,0.00,118.00,VWS V14.01,2013-09-06 11:09:00,
2013-09-06 07:10:00,41.9,39.5,30.15,North,350,0.0,1.0,91,0.00,,CLR,0.00,0.00,VWS V14.01,2013-09-06 11:10:00,
2013-09-06 07:14:00,44.7,41.7,30.17,West,273,1.0,3.0,89,0.00,,CLR,0.00,135.00,VWS V14.01,2013-09-06 11:14:00,
2013-09-06 07:15:00,42.0,39.8,30.15,North,350,0.0,0.0,92,0.00,,CLR,0.00,0.00,VWS V14.01,2013-09-06 11:15:00,
2013-09-06 07:19:00,45.1,41.8,30.18,West,273,0.0,3.0,88,0.00,,CLR,0.00,153.00,VWS V14.01,2013-09-06 11:19:00,
2013-09-06 07:20:00,41.9,39.5,30.16,North,350,0.0,0.0,91,0.00,,CLR,0.00,0.00,VWS V14.01,2013-09-06 11:20:00,
2013-09-06 07:24:00,45.5,41.9,30.17,West,273,0.0,1.0,87,0.00,,CLR,0.00,172.00,VWS V14.01,2013-09-06 11:24:00,
2013-09-06 07:25:00,41.8,39.4,30.15,North,350,0.0,0.0,91,0.00,,CLR,0.00,7.00,VWS V14.01,2013-09-06 11:25:00,
2013-09-06 07:29:00,46.0,42.0,30.18,West,273,0.0,0.0,86,0.00,,CLR,0.00,190.00,VWS V14.01,2013-09-06 11:29:00,
2013-09-06 07:30:00,41.9,39.8,30.17,North,350,0.0,2.0,92,0.00,,CLR,0.00,9.00,VWS V14.01,2013-09-06 11:30:00,
2013-09-06 07:34:00,46.9,44.4,30.17,West,273,0.0,0.0,91,0.00,,CLR,0.00,207.00,VWS V14.01,2013-09-06 11:34:00,
2013-09-06 07:35:00,42.0,39.8,30.16,North,351,1.0,2.0,92,0.00,,CLR,0.00,11.00,VWS V14.01,2013-09-06 11:35:00,
2013-09-06 07:39:00,48.2,44.2,30.18,West,273,0.0,0.0,86,0.00,,CLR,0.00,227.00,VWS V14.01,2013-09-06 11:39:00,
2013-09-06 07:40:00,42.3,40.2,30.17,North,350,1.0,2.0,92,0.00,,CLR,0.00,28.00,VWS V14.01,2013-09-06 11:40:00,
2013-09-06 07:44:00,49.3,44.4,30.18,West,273,0.0,0.0,83,0.00,,CLR,0.00,243.00,VWS V14.01,2013-09-06 11:44:00,
2013-09-06 07:45:00,42.7,40.5,30.16,North,350,1.0,3.0,92,0.00,,CLR,0.00,39.00,VWS V14.01,2013-09-06 11:45:00,
2013-09-06 07:49:00,50.0,43.8,30.17,NW,309,3.0,3.0,79,0.00,,CLR,0.00,258.00,VWS V14.01,2013-09-06 11:49:00,
2013-09-06 07:50:00,43.0,40.6,30.17,North,350,1.0,2.0,91,0.00,,CLR,0.00,51.00,VWS V14.01,2013-09-06 11:50:00,
2013-09-06 07:54:00,50.1,42.8,30.17,NW,321,2.0,3.0,76,0.00,,CLR,0.00,274.00,VWS V14.01,2013-09-06 11:54:00,
2013-09-06 07:55:00,43.3,40.8,30.17,North,350,0.0,3.0,91,0.00,,CLR,0.00,65.00,VWS V14.01,2013-09-06 11:55:00,
2013-09-06 07:59:00,50.5,42.9,30.18,NW,311,4.0,4.0,75,0.00,,CLR,0.00,288.00,VWS V14.01,2013-09-06 11:59:00,
2013-09-06 08:00:00,43.6,40.9,30.18,North,350,1.0,2.0,90,0.00,,CLR,0.00,81.00,VWS V14.01,2013-09-06 12:00:00,
2013-09-06 08:04:00,50.8,42.8,30.16,NW,316,4.0,5.0,74,0.00,,CLR,0.00,304.00,VWS V14.01,2013-09-06 12:04:00,
2013-09-06 08:05:00,43.9,41.2,30.17,WNW,290,5.0,5.0,90,0.00,,CLR,0.00,97.00,VWS V14.01,2013-09-06 12:05:00,
2013-09-06 08:09:00,51.2,42.5,30.18,NW,314,5.0,5.0,72,0.00,,CLR,0.00,320.00,VWS V14.01,2013-09-06 12:09:00,
2013-09-06 08:10:00,44.2,41.2,30.18,West,274,0.0,5.0,89,0.00,,CLR,0.00,113.00,VWS V14.01,2013-09-06 12:10:00,
2013-09-06 08:14:00,51.7,42.6,30.17,NW,321,1.0,5.0,71,0.00,,CLR,0.00,336.00,VWS V14.01,2013-09-06 12:14:00,
2013-09-06 08:15:00,44.6,41.6,30.17,West,273,0.0,1.0,89,0.00,,CLR,0.00,130.00,VWS V14.01,2013-09-06 12:15:00,
2013-09-06 08:19:00,52.1,42.6,30.18,NW,308,3.0,7.0,70,0.00,,CLR,0.00,352.00,VWS V14.01,2013-09-06 12:19:00,
2013-09-06 08:20:00,44.9,41.6,30.18,West,273,3.0,3.0,88,0.00,,CLR,0.00,144.00,VWS V14.01,2013-09-06 12:20:00,
2013-09-06 08:24:00,52.5,42.3,30.18,WNW,296,3.0,5.0,68,0.00,,CLR,0.00,353.00,VWS V14.01,2013-09-06 12:24:00,
2013-09-06 08:25:00,45.3,41.7,30.18,West,273,1.0,3.0,87,0.00,,CLR,0.00,163.00,VWS V14.01,2013-09-06 12:25:00,
2013-09-06 08:29:00,53.0,43.5,30.17,WNW,291,2.0,5.0,70,0.00,,CLR,0.00,388.00,VWS V14.01,2013-09-06 12:29:00,
2013-09-06 08:30:00,45.8,42.2,30.17,West,273,0.0,1.0,87,0.00,,CLR,0.00,181.00,VWS V14.01,2013-09-06 12:30:00,
2013-09-06 08:34:00,53.5,43.2,30.17,NNE,12,2.0,7.0,68,0.00,,CLR,0.00,406.00,VWS V14.01,2013-09-06 12:34:00,
2013-09-06 08:35:00,46.4,42.8,30.18,West,273,0.0,0.0,87,0.00,,CLR,0.00,200.00,VWS V14.01,2013-09-06 12:35:00,
2013-09-06 08:40:00,53.9,42.8,30.18,NNW,346,3.0,6.0,66,0.00,,CLR,0.00,424.00,VWS V14.01,2013-09-06 12:40:00,
2013-09-06 08:45:00,54.2,42.7,30.18,North,5,3.0,6.0,65,0.00,,CLR,0.00,422.00,VWS V14.01,2013-09-06 12:45:00,
2013-09-06 08:50:00,54.7,44.0,30.18,North,355,3.0,3.0,67,0.00,,CLR,0.00,415.00,VWS V14.01,2013-09-06 12:50:00,
2013-09-06 08:55:00,55.1,43.6,30.18,NNW,330,3.0,6.0,65,0.00,,CLR,0.00,441.00,VWS V14.01,2013-09-06 12:55:00,
2013-09-06 09:00:00,55.2,43.2,30.18,NNE,17,2.0,5.0,64,0.00,,CLR,0.00,468.00,VWS V14.01,2013-09-06 13:00:00,
2013-09-06 09:05:00,55.5,43.1,30.19,North,355,4.0,6.0,63,0.00,,CLR,0.00,475.00,VWS V14.01,2013-09-06 13:05:00,
2013-09-06 09:10:00,55.6,42.8,30.19,NW,306,5.0,6.0,62,0.00,,CLR,0.00,489.00,VWS V14.01,2013-09-06 13:10:00,
2013-09-06 09:15:00,55.8,43.4,30.19,NNW,339,1.0,5.0,63,0.00,,CLR,0.00,487.00,VWS V14.01,2013-09-06 13:15:00,
2013-09-06 09:20:00,56.1,42.8,30.19,NW,324,4.0,6.0,61,0.00,,CLR,0.00,483.00,VWS V14.01,2013-09-06 13:20:00,
2013-09-06 09:25:00,56.3,43.0,30.19,NNW,331,2.0,4.0,61,0.00,,CLR,0.00,510.00,VWS V14.01,2013-09-06 13:25:00,
2013-09-06 09:30:00,56.6,42.9,30.19,NNW,328,2.0,6.0,60,0.00,,CLR,0.00,534.00,VWS V14.01,2013-09-06 13:30:00,
2013-09-06 09:35:00,57.0,43.7,30.19,North,355,3.0,5.0,61,0.00,,CLR,0.00,550.00,VWS V14.01,2013-09-06 13:35:00,
2013-09-06 09:40:00,57.5,43.7,30.19,NNW,339,4.0,4.0,60,0.00,,CLR,0.00,515.00,VWS V14.01,2013-09-06 13:40:00,
2013-09-06 09:45:00,57.8,43.6,30.19,NW,306,2.0,7.0,59,0.00,,CLR,0.00,547.00,VWS V14.01,2013-09-06 13:45:00,
2013-09-06 09:50:00,58.0,42.9,30.19,WNW,300,4.0,9.0,57,0.00,,CLR,0.00,596.00,VWS V14.01,2013-09-06 13:50:00,
2013-09-06 09:55:00,58.0,43.3,30.19,NW,313,4.0,5.0,58,0.00,,CLR,0.00,613.00,VWS V14.01,2013-09-06 13:55:00,
2013-09-06 10:00:00,58.3,43.6,30.19,WSW,250,5.0,8.0,58,0.00,,CLR,0.00,617.00,VWS V14.01,2013-09-06 14:00:00,
2013-09-06 10:05:00,58.5,43.3,30.19,WNW,294,3.0,5.0,57,0.00,,CLR,0.00,613.00,VWS V14.01,2013-09-06 14:05:00,
2013-09-06 10:10:00,55.6,43.2,30.19,NNW,331,3.0,7.0,63,0.00,,CLR,0.00,473.00,VWS V14.01,2013-09-06 14:10:00,
2013-09-06 10:11:00,58.7,42.1,30.19,West,259,2.0,5.0,54,0.00,,CLR,0.00,628.00,VWS V14.01,2013-09-06 14:11:00,
2013-09-06 10:15:00,55.6,42.8,30.19,NW,323,5.0,6.0,62,0.00,,CLR,0.00,487.00,VWS V14.01,2013-09-06 14:15:00,
2013-09-06 10:16:00,58.9,40.8,30.18,WNW,286,2.0,5.0,51,0.00,,CLR,0.00,654.00,VWS V14.01,2013-09-06 14:16:00,
2013-09-06 10:20:00,55.9,43.1,30.19,NNW,338,5.0,6.0,62,0.00,,CLR,0.00,478.00,VWS V14.01,2013-09-06 14:20:00,
2013-09-06 10:21:00,59.0,41.4,30.18,NW,317,5.0,6.0,52,0.00,,CLR,0.00,640.00,VWS V14.01,2013-09-06 14:21:00,
2013-09-06 10:25:00,56.1,42.8,30.19,NNW,331,1.0,6.0,61,0.00,,CLR,0.00,478.00,VWS V14.01,2013-09-06 14:25:00,
2013-09-06 10:26:00,59.2,42.1,30.19,WNW,290,0.0,4.0,53,0.00,,CLR,0.00,649.00,VWS V14.01,2013-09-06 14:26:00,
2013-09-06 10:30:00,56.5,43.2,30.19,NW,320,4.0,6.0,61,0.00,,CLR,0.00,520.00,VWS V14.01,2013-09-06 14:30:00,
2013-09-06 10:31:00,59.7,41.6,30.19,North,355,3.0,6.0,51,0.00,,CLR,0.00,621.00,VWS V14.01,2013-09-06 14:31:00,
2013-09-06 10:35:00,56.7,43.4,30.19,NNW,327,4.0,6.0,61,0.00,,CLR,0.00,541.00,VWS V14.01,2013-09-06 14:35:00,
2013-09-06 10:36:00,59.8,41.1,30.18,East,80,1.0,5.0,50,0.00,,CLR,0.00,673.00,VWS V14.01,2013-09-06 14:36:00,
2013-09-06 10:40:00,57.1,42.9,30.19,NNE,19,3.0,5.0,59,0.00,,CLR,0.00,552.00,VWS V14.01,2013-09-06 14:40:00,
2013-09-06 10:41:00,60.2,41.0,30.18,NNE,19,5.0,6.0,49,0.00,,CLR,0.00,691.00,VWS V14.01,2013-09-06 14:41:00,
2013-09-06 10:45:00,57.6,43.4,30.19,NNW,334,1.0,4.0,59,0.00,,CLR,0.00,490.00,VWS V14.01,2013-09-06 14:45:00,
2013-09-06 10:46:00,60.3,39.5,30.18,West,261,8.0,8.0,46,0.00,,CLR,0.00,661.00,VWS V14.01,2013-09-06 14:46:00,
2013-09-06 10:50:00,57.9,43.7,30.19,North,355,3.0,7.0,59,0.00,,CLR,0.00,587.00,VWS V14.01,2013-09-06 14:50:00,
2013-09-06 10:51:00,60.2,39.9,30.18,SW,233,1.0,7.0,47,0.00,,CLR,0.00,684.00,VWS V14.01,2013-09-06 14:51:00,
2013-09-06 10:55:00,57.9,42.8,30.19,WNW,292,2.0,9.0,57,0.00,,CLR,0.00,605.00,VWS V14.01,2013-09-06 14:55:00,
2013-09-06 10:56:00,60.1,39.3,30.17,WSW,237,1.0,10.0,46,0.00,,CLR,0.00,691.00,VWS V14.01,2013-09-06 14:56:00,
2013-09-06 11:00:00,58.0,43.3,30.19,NW,318,3.0,5.0,58,0.00,,CLR,0.00,601.00,VWS V14.01,2013-09-06 15:00:00,
2013-09-06 11:01:00,60.2,38.8,30.17,NNW,330,2.0,8.0,45,0.00,,CLR,0.00,670.00,VWS V14.01,2013-09-06 15:01:00,
2013-09-06 11:05:00,58.4,43.2,30.19,NNW,335,4.0,8.0,57,0.00,,CLR,0.00,619.00,VWS V14.01,2013-09-06 15:05:00,
2013-09-06 11:06:00,59.9,37.4,30.18,WNW,290,4.0,9.0,43,0.00,,CLR,0.00,624.00,VWS V14.01,2013-09-06 15:06:00,
2013-09-06 11:10:00,58.6,42.5,30.19,West,277,2.0,5.0,55,0.00,,CLR,0.00,612.00,VWS V14.01,2013-09-06 15:10:00,
2013-09-06 11:11:00,60.0,38.0,30.19,NNW,338,4.0,4.0,44,0.00,,CLR,0.00,698.00,VWS V14.01,2013-09-06 15:11:00,
2013-09-06 11:15:00,58.8,41.2,30.19,West,268,4.0,5.0,52,0.00,,CLR,0.00,640.00,VWS V14.01,2013-09-06 15:15:00,
2013-09-06 11:16:00,60.6,40.3,30.19,WNW,288,1.0,6.0,47,0.00,,CLR,0.00,693.00,VWS V14.01,2013-09-06 15:16:00,
2013-09-06 11:20:00,58.9,41.3,30.18,NW,306,0.0,6.0,52,0.00,,CLR,0.00,663.00,VWS V14.01,2013-09-06 15:20:00,
2013-09-06 11:21:00,60.7,39.8,30.18,West,271,5.0,6.0,46,0.00,,CLR,0.00,756.00,VWS V14.01,2013-09-06 15:21:00,
2013-09-06 11:25:00,59.1,42.5,30.18,WNW,290,3.0,6.0,54,0.00,,CLR,0.00,633.00,VWS V14.01,2013-09-06 15:25:00,
2013-09-06 11:26:00,61.2,39.1,30.18,NNW,333,6.0,8.0,44,0.00,,CLR,0.00,749.00,VWS V14.01,2013-09-06 15:26:00,
2013-09-06 11:30:00,59.2,42.1,30.19,WNW,290,0.0,4.0,53,0.00,,CLR,0.00,635.00,VWS V14.01,2013-09-06 15:30:00,
2013-09-06 11:31:00,61.1,39.0,30.17,WNW,287,2.0,6.0,44,0.00,,CLR,0.00,715.00,VWS V14.01,2013-09-06 15:31:00,
2013-09-06 11:35:00,59.7,41.6,30.19,NNE,29,1.0,6.0,51,0.00,,CLR,0.00,629.00,VWS V14.01,2013-09-06 15:35:00,
2013-09-06 11:36:00,61.2,39.1,30.18,NNW,333,6.0,10.0,44,0.00,,CLR,0.00,751.00,VWS V14.01,2013-09-06 15:36:00,
2013-09-06 11:40:00,59.8,41.7,30.18,East,81,4.0,6.0,51,0.00,,CLR,0.00,689.00,VWS V14.01,2013-09-06 15:40:00,
2013-09-06 11:41:00,61.2,38.5,30.17,WSW,239,5.0,6.0,43,0.00,,CLR,0.00,744.00,VWS V14.01,2013-09-06 15:41:00,
2013-09-06 11:45:00,60.2,42.0,30.18,NNW,342,6.0,7.0,51,0.00,,CLR,0.00,694.00,VWS V14.01,2013-09-06 15:45:00,
2013-09-06 11:47:00,61.4,38.7,30.17,SW,224,1.0,6.0,43,0.00,,CLR,0.00,735.00,VWS V14.01,2013-09-06 15:47:00,
2013-09-06 11:50:00,60.3,39.5,30.18,SSW,212,5.0,8.0,46,0.00,,CLR,0.00,659.00,VWS V14.01,2013-09-06 15:50:00,
2013-09-06 11:52:00,61.8,39.7,30.17,West,281,7.0,7.0,44,0.00,,CLR,0.00,747.00,VWS V14.01,2013-09-06 15:52:00,
2013-09-06 11:55:00,60.3,40.0,30.18,SW,233,1.0,7.0,47,0.00,,CLR,0.00,708.00,VWS V14.01,2013-09-06 15:55:00,
2013-09-06 11:57:00,61.9,39.8,30.17,NNW,336,3.0,7.0,44,0.00,,CLR,0.00,766.00,VWS V14.01,2013-09-06 15:57:00,
2013-09-06 12:00:00,60.1,38.7,30.17,SW,236,2.0,10.0,45,0.00,,CLR,0.00,643.00,VWS V14.01,2013-09-06 16:00:00,
2013-09-06 12:02:00,61.6,38.9,30.17,NE,55,5.0,8.0,43,0.00,,CLR,0.00,744.00,VWS V14.01,2013-09-06 16:02:00,
2013-09-06 12:05:00,60.2,39.9,30.17,WSW,253,6.0,8.0,47,0.00,,CLR,0.00,679.00,VWS V14.01,2013-09-06 16:05:00,
2013-09-06 12:07:00,61.3,39.2,30.16,SE,138,2.0,5.0,44,0.00,,CLR,0.00,721.00,VWS V14.01,2013-09-06 16:07:00,
2013-09-06 12:10:00,59.8,36.7,30.18,WSW,252,4.0,9.0,42,0.00,,CLR,0.00,666.00,VWS V14.01,2013-09-06 16:10:00,
2013-09-06 12:12:00,61.7,39.6,30.16,NNW,342,5.0,7.0,44,0.00,,CLR,0.00,687.00,VWS V14.01,2013-09-06 16:12:00,
2013-09-06 12:15:00,60.0,38.6,30.19,West,279,3.0,5.0,45,0.00,,CLR,0.00,684.00,VWS V14.01,2013-09-06 16:15:00,
2013-09-06 12:17:00,61.8,39.1,30.16,WNW,294,3.0,6.0,43,0.00,,CLR,0.00,807.00,VWS V14.01,2013-09-06 16:17:00,
2013-09-06 12:20:00,60.6,38.6,30.19,NNW,333,3.0,6.0,44,0.00,,CLR,0.00,693.00,VWS V14.01,2013-09-06 16:20:00,
2013-09-06 12:22:00,62.2,38.8,30.16,WSW,246,2.0,7.0,42,0.00,,CLR,0.00,809.00,VWS V14.01,2013-09-06 16:22:00,
2013-09-06 12:25:00,60.8,39.9,30.18,West,271,3.0,6.0,46,0.00,,CLR,0.00,756.00,VWS V14.01,2013-09-06 16:25:00,
2013-09-06 12:27:00,62.7,39.3,30.16,WNW,298,6.0,6.0,42,0.00,,CLR,0.00,784.00,VWS V14.01,2013-09-06 16:27:00,
2013-09-06 12:30:00,61.2,39.1,30.18,North,355,3.0,8.0,44,0.00,,CLR,0.00,749.00,VWS V14.01,2013-09-06 16:30:00,
2013-09-06 12:32:00,62.5,39.1,30.15,NNW,327,3.0,3.0,42,0.00,,CLR,0.00,763.00,VWS V14.01,2013-09-06 16:32:00,
2013-09-06 12:35:00,61.1,39.0,30.17,WNW,287,3.0,6.0,44,0.00,,CLR,0.00,715.00,VWS V14.01,2013-09-06 16:35:00,
2013-09-06 12:37:00,63.0,40.2,30.15,West,261,7.0,9.0,43,0.00,,CLR,0.00,772.00,VWS V14.01,2013-09-06 16:37:00,
2013-09-06 12:40:00,61.3,39.2,30.18,NNW,341,3.0,10.0,44,0.00,,CLR,0.00,745.00,VWS V14.01,2013-09-06 16:40:00,
2013-09-06 12:42:00,63.0,38.3,30.15,NNW,340,0.0,2.0,40,0.00,,CLR,0.00,775.00,VWS V14.01,2013-09-06 16:42:00,
2013-09-06 12:45:00,61.3,38.6,30.17,West,266,5.0,6.0,43,0.00,,CLR,0.00,752.00,VWS V14.01,2013-09-06 16:45:00,
2013-09-06 12:47:00,63.2,38.5,30.15,SE,124,2.0,5.0,40,0.00,,CLR,0.00,772.00,VWS V14.01,2013-09-06 16:47:00,
2013-09-06 12:50:00,61.4,39.3,30.17,WSW,255,5.0,6.0,44,0.00,,CLR,0.00,740.00,VWS V14.01,2013-09-06 16:50:00,
2013-09-06 12:52:00,63.4,40.5,30.15,WSW,238,3.0,4.0,43,0.00,,CLR,0.00,773.00,VWS V14.01,2013-09-06 16:52:00,
2013-09-06 12:55:00,61.8,39.7,30.17,West,281,6.0,7.0,44,0.00,,CLR,0.00,747.00,VWS V14.01,2013-09-06 16:55:00,
2013-09-06 12:57:00,63.5,38.1,30.14,NW,313,7.0,11.0,39,0.00,,CLR,0.00,772.00,VWS V14.01,2013-09-06 16:57:00,
2013-09-06 13:00:00,61.9,39.8,30.17,North,355,6.0,7.0,44,0.00,,CLR,0.00,766.00,VWS V14.01,2013-09-06 17:00:00,
2013-09-06 13:03:00,62.5,37.2,30.15,SW,236,0.0,6.0,39,0.00,,CLR,0.00,770.00,VWS V14.01,2013-09-06 17:03:00,
2013-09-06 13:05:00,61.6,38.9,30.17,NE,55,5.0,8.0,43,0.00,,CLR,0.00,744.00,VWS V14.01,2013-09-06 17:05:00,
2013-09-06 13:08:00,62.7,38.0,30.14,SSW,199,0.0,5.0,40,0.00,,CLR,0.00,766.00,VWS V14.01,2013-09-06 17:08:00,
2013-09-06 13:10:00,61.3,39.2,30.16,SE,138,2.0,5.0,44,0.00,,CLR,0.00,721.00,VWS V14.01,2013-09-06 17:10:00,
2013-09-06 13:13:00,63.3,39.8,30.14,WNW,291,7.0,11.0,42,0.00,,CLR,0.00,564.00,VWS V14.01,2013-09-06 17:13:00,
2013-09-06 13:15:00,61.7,39.6,30.16,NNW,342,5.0,7.0,44,0.00,,CLR,0.00,687.00,VWS V14.01,2013-09-06 17:15:00,
2013-09-06 13:18:00,63.5,38.1,30.14,West,274,5.0,7.0,39,0.00,,CLR,0.00,127.00,VWS V14.01,2013-09-06 17:18:00,
2013-09-06 13:20:00,61.8,39.1,30.16,WNW,294,3.0,6.0,43,0.00,,CLR,0.00,807.00,VWS V14.01,2013-09-06 17:20:00,
2013-09-06 13:23:00,63.4,38.0,30.15,NW,306,2.0,6.0,39,0.00,,CLR,0.00,39.00,VWS V14.01,2013-09-06 17:23:00,
2013-09-06 13:25:00,62.2,38.8,30.16,WSW,246,2.0,7.0,42,0.00,,CLR,0.00,809.00,VWS V14.01,2013-09-06 17:25:00,
2013-09-06 13:28:00,63.6,39.5,30.14,NW,314,3.0,5.0,41,0.00,,CLR,0.00,37.00,VWS V14.01,2013-09-06 17:28:00,
2013-09-06 13:30:00,62.7,39.3,30.16,WSW,253,5.0,6.0,42,0.00,,CLR,0.00,782.00,VWS V14.01,2013-09-06 17:30:00,
2013-09-06 13:33:00,63.8,39.0,30.14,NW,323,0.0,3.0,40,0.00,,CLR,0.00,37.00,VWS V14.01,2013-09-06 17:33:00,
2013-09-06 13:35:00,62.5,38.5,30.15,SW,227,1.0,8.0,41,0.00,,CLR,0.00,779.00,VWS V14.01,2013-09-06 17:35:00,
2013-09-06 13:38:00,64.3,39.5,30.14,West,270,4.0,4.0,40,0.00,,CLR,0.00,35.00,VWS V14.01,2013-09-06 17:38:00,
2013-09-06 13:40:00,63.0,40.2,30.15,WNW,294,6.0,10.0,43,0.00,,CLR,0.00,770.00,VWS V14.01,2013-09-06 17:40:00,
2013-09-06 13:43:00,64.4,40.2,30.13,NNW,328,6.0,9.0,41,0.00,,CLR,0.00,35.00,VWS V14.01,2013-09-06 17:43:00,
2013-09-06 13:45:00,63.0,39.6,30.15,NNW,340,2.0,9.0,42,0.00,,CLR,0.00,775.00,VWS V14.01,2013-09-06 17:45:00,
2013-09-06 13:48:00,64.4,39.6,30.14,NNW,336,7.0,9.0,40,0.00,,CLR,0.00,37.00,VWS V14.01,2013-09-06 17:48:00,
2013-09-06 13:50:00,63.1,39.0,30.15,ESE,103,4.0,4.0,41,0.00,,CLR,0.00,772.00,VWS V14.01,2013-09-06 17:50:00,
2013-09-06 13:53:00,64.3,39.5,30.13,NW,306,2.0,3.0,40,0.00,,CLR,0.00,37.00,VWS V14.01,2013-09-06 17:53:00,
2013-09-06 13:55:00,63.3,39.2,30.15,ESE,123,0.0,5.0,41,0.00,,CLR,0.00,773.00,VWS V14.01,2013-09-06 17:55:00,
2013-09-06 13:59:00,64.5,40.3,30.14,NW,307,6.0,7.0,41,0.00,,CLR,0.00,39.00,VWS V14.01,2013-09-06 17:59:00,
2013-09-06 14:00:00,63.6,38.2,30.14,WNW,285,11.0,11.0,39,0.00,,CLR,0.00,773.00,VWS V14.01,2013-09-06 18:00:00,
2013-09-06 14:04:00,64.9,40.7,30.13,WSW,254,9.0,11.0,41,0.00,,CLR,0.00,40.00,VWS V14.01,2013-09-06 18:04:00,
2013-09-06 14:05:00,62.6,38.6,30.15,SW,236,6.0,11.0,41,0.00,,CLR,0.00,770.00,VWS V14.01,2013-09-06 18:05:00,
2013-09-06 14:09:00,64.9,41.3,30.13,SW,229,2.0,7.0,42,0.00,,CLR,0.00,40.00,VWS V14.01,2013-09-06 18:09:00,
2013-09-06 14:10:00,62.7,38.0,30.14,SSW,198,5.0,6.0,40,0.00,,CLR,0.00,766.00,VWS V14.01,2013-09-06 18:10:00,
2013-09-06 14:14:00,65.4,41.1,30.13,North,355,3.0,5.0,41,0.00,,CLR,0.00,40.00,VWS V14.01,2013-09-06 18:14:00,
2013-09-06 14:15:00,63.2,39.8,30.14,West,265,6.0,9.0,42,0.00,,CLR,0.00,633.00,VWS V14.01,2013-09-06 18:15:00,
2013-09-06 14:19:00,65.4,41.1,30.12,East,101,2.0,3.0,41,0.00,,CLR,0.00,40.00,VWS V14.01,2013-09-06 18:19:00,
2013-09-06 14:20:00,63.5,37.5,30.15,WNW,297,4.0,11.0,38,0.00,,CLR,0.00,179.00,VWS V14.01,2013-09-06 18:20:00,
2013-09-06 14:24:00,65.7,42.6,30.12,WNW,286,3.0,9.0,43,0.00,,CLR,0.00,40.00,VWS V14.01,2013-09-06 18:24:00,
2013-09-06 14:25:00,63.4,38.0,30.14,WNW,300,6.0,7.0,39,0.00,,CLR,0.00,39.00,VWS V14.01,2013-09-06 18:25:00,
2013-09-06 14:29:00,65.9,40.9,30.12,SSW,198,4.0,10.0,40,0.00,,CLR,0.00,151.00,VWS V14.01,2013-09-06 18:29:00,
2013-09-06 14:30:00,63.5,38.1,30.15,West,279,1.0,7.0,39,0.00,,CLR,0.00,37.00,VWS V14.01,2013-09-06 18:30:00,
2013-09-06 14:34:00,65.7,40.7,30.12,NW,322,3.0,9.0,40,0.00,,CLR,0.00,403.00,VWS V14.01,2013-09-06 18:34:00,
2013-09-06 14:35:00,63.8,38.4,30.14,NW,323,3.0,7.0,39,0.00,,CLR,0.00,37.00,VWS V14.01,2013-09-06 18:35:00,
2013-09-06 14:39:00,66.0,41.0,30.11,SW,217,1.0,5.0,40,0.00,,CLR,0.00,499.00,VWS V14.01,2013-09-06 18:39:00,
2013-09-06 14:40:00,64.2,40.0,30.14,SW,235,4.0,7.0,41,0.00,,CLR,0.00,35.00,VWS V14.01,2013-09-06 18:40:00,
2013-09-06 14:44:00,66.2,41.2,30.11,NE,48,3.0,3.0,40,0.00,,CLR,0.00,278.00,VWS V14.01,2013-09-06 18:44:00,
2013-09-06 14:45:00,64.4,39.6,30.13,West,270,2.0,8.0,40,0.00,,CLR,0.00,35.00,VWS V14.01,2013-09-06 18:45:00,
2013-09-06 14:49:00,66.6,42.2,30.11,SW,236,2.0,6.0,41,0.00,,CLR,0.00,396.00,VWS V14.01,2013-09-06 18:49:00,
2013-09-06 14:50:00,64.5,40.3,30.14,NW,306,8.0,11.0,41,0.00,,CLR,0.00,35.00,VWS V14.01,2013-09-06 18:50:00,
2013-09-06 14:54:00,66.8,40.4,30.11,West,271,2.0,6.0,38,0.00,,CLR,0.00,308.00,VWS V14.01,2013-09-06 18:54:00,
2013-09-06 14:55:00,64.2,39.4,30.14,NW,313,1.0,9.0,40,0.00,,CLR,0.00,37.00,VWS V14.01,2013-09-06 18:55:00,
2013-09-06 14:59:00,66.8,39.7,30.11,WSW,250,4.0,7.0,37,0.00,,CLR,0.00,592.00,VWS V14.01,2013-09-06 18:59:00,
2013-09-06 15:00:00,64.4,40.2,30.13,NE,43,3.0,6.0,41,0.00,,CLR,0.00,37.00,VWS V14.01,2013-09-06 19:00:00,
2013-09-06 15:05:00,66.6,40.9,30.10,NNW,347,0.0,6.0,39,0.00,,CLR,0.00,601.00,VWS V14.01,2013-09-06 19:05:00,
2013-09-06 15:10:00,66.9,39.8,30.10,SW,217,6.0,8.0,37,0.00,,CLR,0.00,592.00,VWS V14.01,2013-09-06 19:10:00,
2013-09-06 15:15:00,66.5,40.8,30.09,WNW,284,1.0,8.0,39,0.00,,CLR,0.00,599.00,VWS V14.01,2013-09-06 19:15:00,
2013-09-06 15:20:00,66.7,41.6,30.10,West,259,5.0,9.0,40,0.00,,CLR,0.00,557.00,VWS V14.01,2013-09-06 19:20:00,
2013-09-06 15:25:00,66.5,40.1,30.09,SW,235,2.0,8.0,38,0.00,,CLR,0.00,497.00,VWS V14.01,2013-09-06 19:25:00,
2013-09-06 15:30:00,66.9,41.8,30.10,West,277,3.0,4.0,40,0.00,,CLR,0.00,504.00,VWS V14.01,2013-09-06 19:30:00,
2013-09-06 15:35:00,66.9,41.2,30.09,SW,227,3.0,10.0,39,0.00,,CLR,0.00,533.00,VWS V14.01,2013-09-06 19:35:00,
2013-09-06 15:40:00,67.2,42.1,30.09,West,275,2.0,6.0,40,0.00,,CLR,0.00,497.00,VWS V14.01,2013-09-06 19:40:00,
2013-09-06 15:45:00,67.8,41.3,30.08,NNW,329,3.0,8.0,38,0.00,,CLR,0.00,519.00,VWS V14.01,2013-09-06 19:45:00,
2013-09-06 15:50:00,67.7,41.9,30.09,West,270,4.0,14.0,39,0.00,,CLR,0.00,489.00,VWS V14.01,2013-09-06 19:50:00,
2013-09-06 15:55:00,66.7,41.0,30.11,WNW,298,3.0,8.0,39,0.00,,CLR,0.00,308.00,VWS V14.01,2013-09-06 19:55:00,
2013-09-06 15:56:00,67.7,41.9,30.09,WNW,288,7.0,7.0,39,0.00,,CLR,0.00,457.00,VWS V14.01,2013-09-06 19:56:00,
2013-09-06 16:00:00,66.8,41.1,30.11,WSW,250,6.0,9.0,39,0.00,,CLR,0.00,503.00,VWS V14.01,2013-09-06 20:00:00,
2013-09-06 16:01:00,67.5,41.0,30.08,WNW,282,4.0,9.0,38,0.00,,CLR,0.00,425.00,VWS V14.01,2013-09-06 20:01:00,
2013-09-06 16:05:00,66.8,41.1,30.10,NW,321,5.0,7.0,39,0.00,,CLR,0.00,596.00,VWS V14.01,2013-09-06 20:05:00,
2013-09-06 16:06:00,67.1,40.7,30.08,WSW,242,4.0,11.0,38,0.00,,CLR,0.00,443.00,VWS V14.01,2013-09-06 20:06:00,
2013-09-06 16:10:00,66.8,41.1,30.10,NW,308,3.0,6.0,39,0.00,,CLR,0.00,598.00,VWS V14.01,2013-09-06 20:10:00,
2013-09-06 16:11:00,67.2,40.8,30.08,WNW,291,1.0,5.0,38,0.00,,CLR,0.00,445.00,VWS V14.01,2013-09-06 20:11:00,
2013-09-06 16:15:00,66.7,39.6,30.10,WSW,250,5.0,11.0,37,0.00,,CLR,0.00,594.00,VWS V14.01,2013-09-06 20:15:00,
2013-09-06 16:16:00,67.7,42.5,30.08,WNW,292,2.0,2.0,40,0.00,,CLR,0.00,436.00,VWS V14.01,2013-09-06 20:16:00,
2013-09-06 16:20:00,66.6,40.9,30.09,WNW,297,6.0,8.0,39,0.00,,CLR,0.00,575.00,VWS V14.01,2013-09-06 20:20:00,
2013-09-06 16:21:00,68.6,42.0,30.07,West,262,7.0,7.0,38,0.00,,CLR,0.00,434.00,VWS V14.01,2013-09-06 20:21:00,
2013-09-06 16:25:00,66.7,41.0,30.10,WSW,242,8.0,9.0,39,0.00,,CLR,0.00,570.00,VWS V14.01,2013-09-06 20:25:00,
2013-09-06 16:26:00,69.1,42.5,30.08,SW,230,2.0,8.0,38,0.00,,CLR,0.00,422.00,VWS V14.01,2013-09-06 20:26:00,
2013-09-06 16:30:00,66.6,42.2,30.09,WNW,300,2.0,8.0,41,0.00,,CLR,0.00,547.00,VWS V14.01,2013-09-06 20:30:00,
2013-09-06 16:31:00,68.6,41.3,30.07,SSW,202,2.0,8.0,37,0.00,,CLR,0.00,408.00,VWS V14.01,2013-09-06 20:31:00,
2013-09-06 16:35:00,66.9,41.2,30.10,West,279,4.0,9.0,39,0.00,,CLR,0.00,529.00,VWS V14.01,2013-09-06 20:35:00,
2013-09-06 16:36:00,68.5,41.2,30.06,North,355,3.0,4.0,37,0.00,,CLR,0.00,392.00,VWS V14.01,2013-09-06 20:36:00,
2013-09-06 16:40:00,66.9,41.2,30.09,WNW,294,3.0,10.0,39,0.00,,CLR,0.00,504.00,VWS V14.01,2013-09-06 20:40:00,
2013-09-06 16:41:00,68.4,41.1,30.07,West,277,4.0,8.0,37,0.00,,CLR,0.00,378.00,VWS V14.01,2013-09-06 20:41:00,
2013-09-06 16:45:00,67.5,43.0,30.09,NW,304,5.0,6.0,41,0.00,,CLR,0.00,517.00,VWS V14.01,2013-09-06 20:45:00,
2013-09-06 16:46:00,68.1,40.9,30.06,WSW,250,6.0,10.0,37,0.00,,CLR,0.00,360.00,VWS V14.01,2013-09-06 20:46:00,
2013-09-06 16:50:00,67.9,42.1,30.08,West,281,4.0,8.0,39,0.00,,CLR,0.00,504.00,VWS V14.01,2013-09-06 20:50:00,
2013-09-06 16:51:00,67.8,42.6,30.06,NW,307,10.0,10.0,40,0.00,,CLR,0.00,339.00,VWS V14.01,2013-09-06 20:51:00,
2013-09-06 16:55:00,67.6,41.8,30.09,West,279,3.0,14.0,39,0.00,,CLR,0.00,489.00,VWS V14.01,2013-09-06 20:55:00,
2013-09-06 16:56:00,67.9,41.4,30.06,SW,225,4.0,9.0,38,0.00,,CLR,0.00,316.00,VWS V14.01,2013-09-06 20:56:00,
2013-09-06 17:00:00,67.8,41.3,30.08,West,273,8.0,9.0,38,0.00,,CLR,0.00,448.00,VWS V14.01,2013-09-06 21:00:00,
2013-09-06 17:02:00,68.2,41.0,30.06,NW,311,3.0,6.0,37,0.00,,CLR,0.00,297.00,VWS V14.01,2013-09-06 21:02:00,
2013-09-06 17:05:00,67.5,41.7,30.08,SW,220,6.0,9.0,39,0.00,,CLR,0.00,432.00,VWS V14.01,2013-09-06 21:05:00,
2013-09-06 17:07:00,68.1,42.9,30.07,West,274,6.0,9.0,40,0.00,,CLR,0.00,292.00,VWS V14.01,2013-09-06 21:07:00,
2013-09-06 17:10:00,67.1,40.7,30.08,West,280,4.0,11.0,38,0.00,,CLR,0.00,450.00,VWS V14.01,2013-09-06 21:10:00,
2013-09-06 17:12:00,68.0,41.5,30.06,West,277,7.0,9.0,38,0.00,,CLR,0.00,260.00,VWS V14.01,2013-09-06 21:12:00,
2013-09-06 17:15:00,67.2,41.4,30.08,WNW,292,0.0,5.0,39,0.00,,CLR,0.00,424.00,VWS V14.01,2013-09-06 21:15:00,
2013-09-06 17:17:00,67.6,41.8,30.07,WNW,296,4.0,9.0,39,0.00,,CLR,0.00,236.00,VWS V14.01,2013-09-06 21:17:00,
2013-09-06 17:20:00,67.8,42.6,30.08,WNW,291,2.0,2.0,40,0.00,,CLR,0.00,431.00,VWS V14.01,2013-09-06 21:20:00,
2013-09-06 17:22:00,67.5,41.7,30.06,WSW,244,4.0,4.0,39,0.00,,CLR,0.00,192.00,VWS V14.01,2013-09-06 21:22:00,
2013-09-06 17:25:00,68.7,42.1,30.07,WSW,257,4.0,7.0,38,0.00,,CLR,0.00,434.00,VWS V14.01,2013-09-06 21:25:00,
2013-09-06 17:27:00,67.4,41.6,30.06,WSW,243,5.0,5.0,39,0.00,,CLR,0.00,213.00,VWS V14.01,2013-09-06 21:27:00,
2013-09-06 17:30:00,69.0,41.7,30.08,SW,225,2.0,8.0,37,0.00,,CLR,0.00,420.00,VWS V14.01,2013-09-06 21:30:00,
2013-09-06 17:32:00,67.1,42.0,30.07,West,279,5.0,8.0,40,0.00,,CLR,0.00,216.00,VWS V14.01,2013-09-06 21:32:00,
2013-09-06 17:35:00,68.5,41.2,30.07,WNW,300,3.0,8.0,37,0.00,,CLR,0.00,404.00,VWS V14.01,2013-09-06 21:35:00,
2013-09-06 17:37:00,67.2,42.7,30.06,WNW,296,3.0,3.0,41,0.00,,CLR,0.00,171.00,VWS V14.01,2013-09-06 21:37:00,
2013-09-06 17:40:00,68.5,41.2,30.06,WNW,301,4.0,7.0,37,0.00,,CLR,0.00,390.00,VWS V14.01,2013-09-06 21:40:00,
2013-09-06 17:42:00,67.6,42.4,30.06,WSW,238,5.0,6.0,40,0.00,,CLR,0.00,178.00,VWS V14.01,2013-09-06 21:42:00,
2013-09-06 17:45:00,68.3,41.0,30.07,West,265,3.0,8.0,37,0.00,,CLR,0.00,374.00,VWS V14.01,2013-09-06 21:45:00,
2013-09-06 17:47:00,67.6,42.4,30.06,WSW,255,6.0,6.0,40,0.00,,CLR,0.00,153.00,VWS V14.01,2013-09-06 21:47:00,
2013-09-06 17:50:00,68.0,40.8,30.06,West,265,3.0,10.0,37,0.00,,CLR,0.00,355.00,VWS V14.01,2013-09-06 21:50:00,
2013-09-06 17:52:00,67.3,42.8,30.06,WSW,251,3.0,6.0,41,0.00,,CLR,0.00,144.00,VWS V14.01,2013-09-06 21:52:00,
2013-09-06 17:55:00,67.8,40.6,30.06,NW,320,7.0,13.0,37,0.00,,CLR,0.00,336.00,VWS V14.01,2013-09-06 21:55:00,
2013-09-06 17:57:00,67.2,42.1,30.07,West,267,4.0,6.0,40,0.00,,CLR,0.00,132.00,VWS V14.01,2013-09-06 21:57:00,
2013-09-06 18:00:00,67.9,40.7,30.06,West,260,5.0,9.0,37,0.00,,CLR,0.00,316.00,VWS V14.01,2013-09-06 22:00:00,
2013-09-06 18:03:00,67.0,42.5,30.07,West,277,5.0,5.0,41,0.00,,CLR,0.00,114.00,VWS V14.01,2013-09-06 22:03:00,
2013-09-06 18:05:00,68.2,41.7,30.06,NW,312,2.0,6.0,38,0.00,,CLR,0.00,297.00,VWS V14.01,2013-09-06 22:05:00,
2013-09-06 18:08:00,67.2,43.4,30.07,West,263,6.0,6.0,42,0.00,,CLR,0.00,91.00,VWS V14.01,2013-09-06 22:08:00,
2013-09-06 18:10:00,68.1,42.9,30.07,NW,316,6.0,9.0,40,0.00,,CLR,0.00,292.00,VWS V14.01,2013-09-06 22:10:00,
2013-09-06 18:13:00,67.1,43.3,30.06,WNW,283,3.0,5.0,42,0.00,,CLR,0.00,83.00,VWS V14.01,2013-09-06 22:13:00,
2013-09-06 18:15:00,68.0,41.5,30.06,West,278,5.0,9.0,38,0.00,,CLR,0.00,260.00,VWS V14.01,2013-09-06 22:15:00,
2013-09-06 18:18:00,66.9,42.5,30.06,WNW,286,5.0,6.0,41,0.00,,CLR,0.00,69.00,VWS V14.01,2013-09-06 22:18:00,
2013-09-06 18:20:00,67.6,41.8,30.07,WNW,296,4.0,9.0,39,0.00,,CLR,0.00,236.00,VWS V14.01,2013-09-06 22:20:00,
2013-09-06 18:23:00,66.7,42.3,30.06,West,278,3.0,7.0,41,0.00,,CLR,0.00,54.00,VWS V14.01,2013-09-06 22:23:00,
2013-09-06 18:25:00,67.5,41.7,30.06,WSW,239,3.0,7.0,39,0.00,,CLR,0.00,192.00,VWS V14.01,2013-09-06 22:25:00,
2013-09-06 18:28:00,66.5,43.3,30.06,SW,236,0.0,4.0,43,0.00,,CLR,0.00,42.00,VWS V14.01,2013-09-06 22:28:00,
2013-09-06 18:30:00,67.4,41.6,30.06,SW,236,4.0,8.0,39,0.00,,CLR,0.00,213.00,VWS V14.01,2013-09-06 22:30:00,
2013-09-06 18:33:00,66.2,43.1,30.06,WNW,285,0.0,3.0,43,0.00,,CLR,0.00,32.00,VWS V14.01,2013-09-06 22:33:00,
2013-09-06 18:35:00,67.1,42.0,30.07,WSW,250,6.0,11.0,40,0.00,,CLR,0.00,216.00,VWS V14.01,2013-09-06 22:35:00,
2013-09-06 18:38:00,66.0,42.9,30.06,West,269,4.0,5.0,43,0.00,,CLR,0.00,19.00,VWS V14.01,2013-09-06 22:38:00,
2013-09-06 18:40:00,67.2,42.1,30.06,NW,317,1.0,9.0,40,0.00,,CLR,0.00,178.00,VWS V14.01,2013-09-06 22:40:00,
2013-09-06 18:43:00,65.6,43.7,30.06,WSW,245,5.0,5.0,45,0.00,,CLR,0.00,14.00,VWS V14.01,2013-09-06 22:43:00,
2013-09-06 18:45:00,67.6,42.4,30.06,SW,231,4.0,6.0,40,0.00,,CLR,0.00,183.00,VWS V14.01,2013-09-06 22:45:00,
2013-09-06 18:49:00,65.3,43.4,30.06,WSW,253,2.0,5.0,45,0.00,,CLR,0.00,12.00,VWS V14.01,2013-09-06 22:49:00,
2013-09-06 18:50:00,67.6,41.8,30.07,West,274,4.0,9.0,39,0.00,,CLR,0.00,162.00,VWS V14.01,2013-09-06 22:50:00,
2013-09-06 18:54:00,64.8,44.1,30.06,WSW,254,4.0,5.0,47,0.00,,CLR,0.00,9.00,VWS V14.01,2013-09-06 22:54:00,
2013-09-06 18:55:00,67.3,42.8,30.06,WSW,254,6.0,7.0,41,0.00,,CLR,0.00,139.00,VWS V14.01,2013-09-06 22:55:00,
2013-09-06 18:59:00,64.2,44.1,30.06,SW,223,1.0,3.0,48,0.00,,CLR,0.00,7.00,VWS V14.01,2013-09-06 22:59:00,
2013-09-06 19:00:00,67.2,42.1,30.06,West,260,6.0,9.0,40,0.00,,CLR,0.00,135.00,VWS V14.01,2013-09-06 23:00:00,
2013-09-06 19:04:00,63.6,44.1,30.06,SW,234,4.0,5.0,49,0.00,,CLR,0.00,5.00,VWS V14.01,2013-09-06 23:04:00,
2013-09-06 19:05:00,67.0,42.5,30.07,WSW,255,3.0,8.0,41,0.00,,CLR,0.00,120.00,VWS V14.01,2013-09-06 23:05:00,
2013-09-06 19:09:00,63.1,44.2,30.06,WSW,240,2.0,5.0,50,0.00,,CLR,0.00,0.00,VWS V14.01,2013-09-06 23:09:00,
2013-09-06 19:10:00,67.2,42.7,30.06,West,280,2.0,5.0,41,0.00,,CLR,0.00,98.00,VWS V14.01,2013-09-06 23:10:00,
2013-09-06 19:14:00,62.7,44.3,30.06,WSW,240,2.0,4.0,51,0.00,,CLR,0.00,0.00,VWS V14.01,2013-09-06 23:14:00,
2013-09-06 19:15:00,67.1,42.6,30.07,WNW,283,5.0,7.0,41,0.00,,CLR,0.00,84.00,VWS V14.01,2013-09-06 23:15:00,
2013-09-06 19:19:00,62.3,44.5,30.05,WSW,240,1.0,2.0,52,0.00,,CLR,0.00,0.00,VWS V14.01,2013-09-06 23:19:00,
2013-09-06 19:20:00,67.0,42.5,30.06,WSW,255,5.0,7.0,41,0.00,,CLR,0.00,70.00,VWS V14.01,2013-09-06 23:20:00,
2013-09-06 19:24:00,62.0,44.7,30.06,WSW,240,0.0,2.0,53,0.00,,CLR,0.00,0.00,VWS V14.01,2013-09-06 23:24:00,
2013-09-06 19:25:00,66.7,42.9,30.06,SW,235,4.0,6.0,42,0.00,,CLR,0.00,56.00,VWS V14.01,2013-09-06 23:25:00,
2013-09-06 19:29:00,61.6,44.3,30.05,WSW,240,0.0,1.0,53,0.00,,CLR,0.00,0.00,VWS V14.01,2013-09-06 23:29:00,
2013-09-06 19:30:00,66.5,42.7,30.06,WSW,237,3.0,7.0,42,0.00,,CLR,0.00,44.00,VWS V14.01,2013-09-06 23:30:00,
2013-09-06 19:35:00,61.2,44.4,30.06,WSW,240,1.0,2.0,54,0.00,,CLR,0.00,0.00,VWS V14.01,2013-09-06 23:35:00,
2013-09-06 19:40:00,60.8,44.5,30.05,WSW,240,0.0,1.0,55,0.00,,CLR,0.00,0.00,VWS V14.01,2013-09-06 23:40:00,
2013-09-06 19:45:00,60.5,44.7,30.06,WSW,240,0.0,1.0,56,0.00,,CLR,0.00,0.00,VWS V14.01,2013-09-06 23:45:00,
2013-09-06 19:50:00,60.1,44.8,30.05,WSW,240,0.0,1.0,57,0.00,,CLR,0.00,0.00,VWS V14.01,2013-09-06 23:50:00,
2013-09-06 19:55:00,59.7,44.9,30.06,WSW,240,0.0,1.0,58,0.00,,CLR,0.00,0.00,VWS V14.01,2013-09-06 23:55:00,
2013-09-06 20:00:00,59.3,45.0,30.06,WSW,240,0.0,1.0,59,0.00,,CLR,0.00,0.00,VWS V14.01,2013-09-07 00:00:00,
2013-09-06 20:05:00,59.0,44.7,30.06,WSW,241,0.0,0.0,59,0.00,,CLR,0.00,0.00,VWS V14.01,2013-09-07 00:05:00,
2013-09-06 20:10:00,58.6,44.3,30.07,WSW,240,0.0,1.0,59,0.00,,CLR,0.00,0.00,VWS V14.01,2013-09-07 00:10:00,
2013-09-06 20:15:00,62.8,44.4,30.06,WSW,240,1.0,5.0,51,0.00,,CLR,0.00,0.00,VWS V14.01,2013-09-07 00:15:00,
2013-09-06 20:16:00,58.4,44.1,30.07,WSW,240,2.0,3.0,59,0.00,,CLR,0.00,0.00,VWS V14.01,2013-09-07 00:16:00,
2013-09-06 20:20:00,62.5,44.2,30.05,WSW,240,0.0,4.0,51,0.00,,CLR,0.00,0.00,VWS V14.01,2013-09-07 00:20:00,
2013-09-06 20:21:00,58.1,43.9,30.06,WSW,240,1.0,3.0,59,0.00,,CLR,0.00,0.00,VWS V14.01,2013-09-07 00:21:00,
2013-09-06 20:25:00,62.2,44.4,30.06,WSW,240,0.0,2.0,52,0.00,,CLR,0.00,0.00,VWS V14.01,2013-09-07 00:25:00,
2013-09-06 20:26:00,57.9,44.1,30.07,WSW,240,0.0,2.0,60,0.00,,CLR,0.00,0.00,VWS V14.01,2013-09-07 00:26:00,
2013-09-06 20:30:00,61.8,44.5,30.05,WSW,240,0.0,2.0,53,0.00,,CLR,0.00,0.00,VWS V14.01,2013-09-07 00:30:00,
2013-09-06 20:31:00,57.8,43.6,30.06,WSW,240,1.0,3.0,59,0.00,,CLR,0.00,0.00,VWS V14.01,2013-09-07 00:31:00,
2013-09-06 20:35:00,61.4,44.6,30.05,WSW,240,0.0,1.0,54,0.00,,CLR,0.00,0.00,VWS V14.01,2013-09-07 00:35:00,
2013-09-06 20:36:00,57.7,43.9,30.06,WSW,240,0.0,5.0,60,0.00,,CLR,0.00,0.00,VWS V14.01,2013-09-07 00:36:00,
2013-09-06 20:40:00,61.0,44.7,30.06,WSW,240,1.0,4.0,55,0.00,,CLR,0.00,0.00,VWS V14.01,2013-09-07 00:40:00,
2013-09-06 20:41:00,57.6,43.8,30.07,WSW,240,0.0,2.0,60,0.00,,CLR,0.00,0.00,VWS V14.01,2013-09-07 00:41:00,
2013-09-06 20:45:00,60.6,44.4,30.05,WSW,240,1.0,2.0,55,0.00,,CLR,0.00,0.00,VWS V14.01,2013-09-07 00:45:00,
2013-09-06 20:46:00,57.5,43.7,30.06,WSW,240,1.0,2.0,60,0.00,,CLR,0.00,0.00,VWS V14.01,2013-09-07 00:46:00,
2013-09-06 20:50:00,60.3,44.6,30.06,WSW,240,1.0,2.0,56,0.00,,CLR,0.00,0.00,VWS V14.01,2013-09-07 00:50:00,
2013-09-06 20:51:00,57.3,44.0,30.07,WSW,240,0.0,3.0,61,0.00,,CLR,0.00,0.00,VWS V14.01,2013-09-07 00:51:00,
2013-09-06 20:55:00,60.0,45.2,30.05,WSW,240,0.0,1.0,58,0.00,,CLR,0.00,0.00,VWS V14.01,2013-09-07 00:55:00,
2013-09-06 20:56:00,57.1,43.8,30.06,WSW,240,0.0,3.0,61,0.00,,CLR,0.00,0.00,VWS V14.01,2013-09-07 00:56:00,
2013-09-06 21:00:00,59.5,44.7,30.06,WSW,240,0.0,1.0,58,0.00,,CLR,0.00,0.00,VWS V14.01,2013-09-07 01:00:00,
2013-09-06 21:01:00,57.0,44.1,30.07,WSW,240,0.0,2.0,62,0.00,,CLR,0.00,0.00,VWS V14.01,2013-09-07 01:01:00,
2013-09-06 21:05:00,59.2,44.9,30.06,WSW,240,0.0,1.0,59,0.00,,CLR,0.00,0.00,VWS V14.01,2013-09-07 01:05:00,
2013-09-06 21:06:00,56.7,44.3,30.07,WSW,240,1.0,3.0,63,0.00,,CLR,0.00,0.00,VWS V14.01,2013-09-07 01:06:00,
2013-09-06 21:10:00,58.8,44.5,30.06,WSW,240,1.0,1.0,59,0.00,,CLR,0.00,0.00,VWS V14.01,2013-09-07 01:10:00,
2013-09-06 21:12:00,56.4,44.0,30.06,WSW,240,3.0,4.0,63,0.00,,CLR,0.00,0.00,VWS V14.01,2013-09-07 01:12:00,
2013-09-06 21:15:00,58.5,44.2,30.07,WSW,240,3.0,3.0,59,0.00,,CLR,0.00,0.00,VWS V14.01,2013-09-07 01:15:00,
2013-09-06 21:17:00,56.3,44.3,30.06,WSW,240,1.0,4.0,64,0.00,,CLR,0.00,0.00,VWS V14.01,2013-09-07 01:17:00,
2013-09-06 21:20:00,58.3,44.0,30.07,WSW,240,2.0,3.0,59,0.00,,CLR,0.00,0.00,VWS V14.01,2013-09-07 01:20:00,
2013-09-06 21:22:00,56.2,44.2,30.05,WSW,242,2.0,6.0,64,0.00,,CLR,0.00,0.00,VWS V14.01,2013-09-07 01:22:00,
2013-09-06 21:25:00,58.1,43.9,30.06,WSW,240,2.0,3.0,59,0.00,,CLR,0.00,0.00,VWS V14.01,2013-09-07 01:25:00,
2013-09-06 21:27:00,56.2,44.2,30.06,WSW,240,1.0,6.0,64,0.00,,CLR,0.00,0.00,VWS V14.01,2013-09-07 01:27:00,
2013-09-06 21:30:00,57.9,44.1,30.07,WSW,240,0.0,2.0,60,0.00,,CLR,0.00,0.00,VWS V14.01,2013-09-07 01:30:00,
2013-09-06 21:32:00,56.2,44.6,30.06,WSW,252,7.0,7.0,65,0.00,,CLR,0.00,0.00,VWS V14.01,2013-09-07 01:32:00,
2013-09-06 21:35:00,57.8,44.0,30.06,WSW,240,1.0,3.0,60,0.00,,CLR,0.00,0.00,VWS V14.01,2013-09-07 01:35:00,
2013-09-06 21:37:00,56.1,44.5,30.06,WSW,242,3.0,3.0,65,0.00,,CLR,0.00,0.00,VWS V14.01,2013-09-07 01:37:00,
2013-09-06 21:40:00,57.7,43.9,30.06,WSW,240,1.0,5.0,60,0.00,,CLR,0.00,0.00,VWS V14.01,2013-09-07 01:40:00,
2013-09-06 21:42:00,55.9,44.3,30.05,WSW,243,3.0,4.0,65,0.00,,CLR,0.00,0.00,VWS V14.01,2013-09-07 01:42:00,
2013-09-06 21:45:00,57.6,43.8,30.07,WSW,240,0.0,2.0,60,0.00,,CLR,0.00,0.00,VWS V14.01,2013-09-07 01:45:00,
2013-09-06 21:47:00,55.7,44.5,30.06,WSW,243,2.0,2.0,66,0.00,,CLR,0.00,0.00,VWS V14.01,2013-09-07 01:47:00,
2013-09-06 21:50:00,57.5,43.7,30.06,WSW,240,1.0,3.0,60,0.00,,CLR,0.00,0.00,VWS V14.01,2013-09-07 01:50:00,
2013-09-06 21:52:00,55.5,44.3,30.05,WSW,243,2.0,3.0,66,0.00,,CLR,0.00,0.00,VWS V14.01,2013-09-07 01:52:00,
2013-09-06 21:55:00,57.3,44.0,30.07,WSW,240,0.0,3.0,61,0.00,,CLR,0.00,0.00,VWS V14.01,2013-09-07 01:55:00,
2013-09-06 21:58:00,55.3,44.5,30.06,WSW,254,4.0,4.0,67,0.00,,CLR,0.00,0.00,VWS V14.01,2013-09-07 01:58:00,
2013-09-06 22:00:00,57.1,44.2,30.06,WSW,240,1.0,3.0,62,0.00,,CLR,0.00,0.00,VWS V14.01,2013-09-07 02:00:00,
2013-09-06 22:03:00,55.2,44.5,30.05,WSW,254,0.0,1.0,67,0.00,,CLR,0.00,0.00,VWS V14.01,2013-09-07 02:03:00,
2013-09-06 22:05:00,56.9,44.0,30.07,WSW,240,0.0,2.0,62,0.00,,CLR,0.00,0.00,VWS V14.01,2013-09-07 02:05:00,
2013-09-06 22:08:00,54.9,44.5,30.05,WSW,254,1.0,1.0,68,0.00,,CLR,0.00,0.00,VWS V14.01,2013-09-07 02:08:00,
2013-09-06 22:10:00,56.7,44.3,30.07,WSW,240,0.0,3.0,63,0.00,,CLR,0.00,0.00,VWS V14.01,2013-09-07 02:10:00,
2013-09-06 22:13:00,54.6,44.3,30.06,WSW,254,0.0,2.0,68,0.00,,CLR,0.00,0.00,VWS V14.01,2013-09-07 02:13:00,
2013-09-06 22:15:00,56.4,44.0,30.06,WSW,240,3.0,4.0,63,0.00,,CLR,0.00,0.00,VWS V14.01,2013-09-07 02:15:00,
2013-09-06 22:18:00,54.5,44.5,30.05,WSW,254,2.0,3.0,69,0.00,,CLR,0.00,0.00,VWS V14.01,2013-09-07 02:18:00,
2013-09-06 22:20:00,56.3,44.3,30.06,WSW,240,2.0,4.0,64,0.00,,CLR,0.00,0.00,VWS V14.01,2013-09-07 02:20:00,
2013-09-06 22:23:00,54.2,44.6,30.06,WSW,254,2.0,2.0,70,0.00,,CLR,0.00,0.00,VWS V14.01,2013-09-07 02:23:00,
2013-09-06 22:25:00,56.2,44.2,30.05,WSW,242,2.0,6.0,64,0.00,,CLR,0.00,0.00,VWS V14.01,2013-09-07 02:25:00,
2013-09-06 22:28:00,54.1,44.5,30.05,WSW,254,0.0,1.0,70,0.00,,CLR,0.00,0.00,VWS V14.01,2013-09-07 02:28:00,
2013-09-06 22:30:00,56.2,44.2,30.06,WSW,240,1.0,6.0,64,0.00,,CLR,0.00,0.00,VWS V14.01,2013-09-07 02:30:00,
2013-09-06 22:33:00,54.0,44.5,30.05,WSW,254,0.0,0.0,70,0.00,,CLR,0.00,0.00,VWS V14.01,2013-09-07 02:33:00,
2013-09-06 22:35:00,56.2,44.6,30.06,WSW,250,6.0,6.0,65,0.00,,CLR,0.00,0.00,VWS V14.01,2013-09-07 02:35:00,
2013-09-06 22:38:00,53.8,44.6,30.05,WSW,254,0.0,3.0,71,0.00,,CLR,0.00,0.00,VWS V14.01,2013-09-07 02:38:00,
2013-09-06 22:40:00,56.1,44.5,30.06,WSW,242,1.0,7.0,65,0.00,,CLR,0.00,0.00,VWS V14.01,2013-09-07 02:40:00,
2013-09-06 22:44:00,53.7,44.5,30.05,WSW,254,1.0,2.0,71,0.00,,CLR,0.00,0.00,VWS V14.01,2013-09-07 02:44:00,
2013-09-06 22:45:00,55.9,44.3,30.05,WSW,243,2.0,5.0,65,0.00,,CLR,0.00,0.00,VWS V14.01,2013-09-07 02:45:00,
2013-09-06 22:49:00,53.7,44.5,30.05,WSW,254,1.0,2.0,71,0.00,,CLR,0.00,0.00,VWS V14.01,2013-09-07 02:49:00,
2013-09-06 22:50:00,55.7,44.5,30.06,WSW,243,0.0,6.0,66,0.00,,CLR,0.00,0.00,VWS V14.01,2013-09-07 02:50:00,
2013-09-06 22:54:00,53.8,44.6,30.05,SW,230,3.0,5.0,71,0.00,,CLR,0.00,0.00,VWS V14.01,2013-09-07 02:54:00,
2013-09-06 22:55:00,55.6,44.4,30.05,WSW,243,3.0,4.0,66,0.00,,CLR,0.00,0.00,VWS V14.01,2013-09-07 02:55:00,
2013-09-06 22:59:00,53.8,44.6,30.05,SW,232,0.0,2.0,71,0.00,,CLR,0.00,0.00,VWS V14.01,2013-09-07 02:59:00,
2013-09-06 23:00:00,55.4,44.6,30.05,WSW,254,1.0,5.0,67,0.00,,CLR,0.00,0.00,VWS V14.01,2013-09-07 03:00:00,
2013-09-06 23:04:00,53.8,44.3,30.05,SW,232,0.0,3.0,70,0.00,,CLR,0.00,0.00,VWS V14.01,2013-09-07 03:04:00,
2013-09-06 23:05:00,55.2,44.5,30.06,WSW,254,1.0,4.0,67,0.00,,CLR,0.00,0.00,VWS V14.01,2013-09-07 03:05:00,
2013-09-06 23:09:00,54.0,44.5,30.04,SW,232,2.0,3.0,70,0.00,,CLR,0.00,0.00,VWS V14.01,2013-09-07 03:09:00,
2013-09-06 23:10:00,55.0,44.3,30.05,WSW,254,0.0,2.0,67,0.00,,CLR,0.00,0.00,VWS V14.01,2013-09-07 03:10:00,
2013-09-06 23:14:00,54.0,44.5,30.04,SW,232,0.0,4.0,70,0.00,,CLR,0.00,0.00,VWS V14.01,2013-09-07 03:14:00,
2013-09-06 23:15:00,54.7,44.4,30.06,WSW,254,0.0,2.0,68,0.00,,CLR,0.00,0.00,VWS V14.01,2013-09-07 03:15:00,
2013-09-06 23:19:00,54.0,44.5,30.03,SW,232,0.0,2.0,70,0.00,,CLR,0.00,0.00,VWS V14.01,2013-09-07 03:19:00,
2013-09-06 23:20:00,54.5,44.5,30.05,WSW,254,1.0,2.0,69,0.00,,CLR,0.00,0.00,VWS V14.01,2013-09-07 03:20:00,
2013-09-06 23:25:00,53.9,44.3,30.03,SW,233,1.0,2.0,70,0.00,,CLR,0.00,0.00,VWS V14.01,2013-09-07 03:25:00,
2013-09-06 23:30:00,53.7,44.5,30.04,SW,232,2.0,2.0,71,0.00,,CLR,0.00,0.00,VWS V14.01,2013-09-07 03:30:00,
2013-09-06 23:35:00,53.5,44.3,30.03,SW,232,0.0,2.0,71,0.00,,CLR,0.00,0.00,VWS V14.01,2013-09-07 03:35:00,
2013-09-06 23:40:00,53.3,44.5,30.04,SW,233,0.0,2.0,72,0.00,,CLR,0.00,0.00,VWS V14.01,2013-09-07 03:40:00,
2013-09-06 23:45:00,53.0,44.6,30.04,SW,233,0.0,2.0,73,0.00,,CLR,0.00,0.00,VWS V14.01,2013-09-07 03:45:00,
2013-09-06 23:50:00,52.6,44.2,30.03,SW,233,1.0,1.0,73,0.00,,CLR,0.00,0.00,VWS V14.01,2013-09-07 03:50:00,
2013-09-06 23:55:00,53.7,44.5,30.05,WSW,254,1.0,3.0,71,0.00,,CLR,0.00,0.00,VWS V14.01,2013-09-07 03:55:00,
2013-09-06 23:56:00,52.5,44.5,30.04,SW,234,0.0,4.0,74,0.00,,CLR,0.00,0.00,VWS V14.01,2013-09-07 03:56:00,